Regional Weather Roundup
Issued by NWS Newport/Morehead, NC

Current Version | Previous Version | Graphics & Text | Print | Product List | Glossary Off
Versions: 1 2 3 4 5 6 7 8 9 10 11 12 13 14 15 16 17 18 19 20 21 22 23 24 25 26 27 28 29 30 31 32 33 34 35 36 37 38 39 40 41 42 43 44 45 46 47 48 49 50

640
ASUS42 KMHX 130025
RWRMHX
WEATHER ROUNDUP FOR EASTERN NORTH CAROLINA
NATIONAL WEATHER SERVICE NEWPORT/MOREHEAD CITY NC
700 PM EST TUE DEC 12 2017

NOTE: "FAIR" INDICATES FEW OR NO CLOUDS BELOW 12,000 FEET
WITH NO SIGNIFICANT WEATHER AND/OR OBSTRUCTIONS TO VISIBILITY

NCZ015>017-031-032-045>047-102-103-130100-
NORTH COAST

CITY           SKY/WX    TMP DP  RH WIND       PRES   REMARKS
EDENTON        PTCLDY    49  34  55 NW9       29.60S
ELIZABETH CITY CLOUDY    49  34  56 W14       29.58R
KITTY HAWK     CLOUDY    48  39  73 W6        29.54F
MANTEO         MOCLDY    47  38  71 NW7       29.56S

$$

NCZ045>047-081-094-103-104-130100-
CENTRAL COAST

CITY           SKY/WX    TMP DP  RH WIND       PRES   REMARKS
FRISCO         CLEAR     51  41  68 NW17G24   29.56R

$$

NCZ095-097-098-100-101-130100-
SOUTHERN COAST

CITY           SKY/WX    TMP DP  RH WIND       PRES   REMARKS
BEAUFORT       CLEAR     49  39  68 W12       29.61R
CEDAR ISLAND   NOT AVBL
JACKSONVILLE   CLEAR     44  38  79 W8        29.64R
PINEY ISLAND     N/A    N/A N/A N/A W12       29.59R
WILMINGTON     CLEAR     50  36  58 W8        29.67R


$$

NCZ011>013-027>030-043-044-078>080-089-090>093-098-130100-
COASTAL PLAIN

CITY           SKY/WX    TMP DP  RH WIND       PRES   REMARKS
AHOSKIE        LGT RAIN  44  28  52 NW9G18    29.64R
CLINTON        CLEAR     47  34  60 W3        29.67S
ELIZABETHTOWN  NOT AVBL
GOLDSBORO      MOCLDY    44  30  56 W7        29.62S
GREENVILLE     PTCLDY    46  30  53 W3        29.65S
HAVELOCK       CLEAR     48  39  71 W10       29.63R
KENANSVILLE    PTCLDY    43  32  65 W5        29.65S
KINSTON        CLEAR     45  32  61 W3        29.63S
NEW BERN       CLEAR     47  35  63 W9        29.63R
RICHLANDS      CLEAR     45  36  70 W3        29.65R
ROCKY MOUNT    CLOUDY    42  31  64 NW26G35   29.68R
WASHINGTON     CLEAR     47  31  54 W6        29.61S
WHITEVILLE     CLEAR     48  35  59 CALM      29.69R

$$

AMZ130-135-150-152-154-156-158-170-250-252-270-ANZ085-086-088-633-658-670-130100-
MARINE OBSERVATIONS

STATION/POSITION TIME  TEMP    WIND        PRES    WAVE   SWELL
                       AIR SEA DIR/SP/G            HT/PER HT/PER
                 (UTC) (F)     (DEG/KT/KT) (MB)    (FT/S) (FT/S)
CHESAPEAKE LIGHT NOT AVBL
64 E VA BEACH    2350   53 60  290/ 21/ 27  998.8    6/ 4   3/ 8
DUCK             0000   50 56  290/ 22/ 26 1000.1
2 E DUCK         0000      56                N/A     2/ 8
OREGON INLET     0000   48 47  280/ 11/ 16 1000.3
13E OREGON INLT  2348      59                N/A     5/ 8   3/ 8
HATTERAS CG      0000   52 57  300/ 21/ 24 1000.8
DIAMOND BUOY     0010   56 72  300/ 27/ 37 1000.8
CAPE LOOKOUT     0000          300/ 17/ 22 1003.0
BEAUFORT LAB     0000   50 53  300/  9/ 12 1002.7
30 SE NEW RVR IN 0008   56 63  290/ 21/ 25 1003.3
30 SE NEW RVR IN 0000      63                N/A     8/ 7
27 SE WRIGHTSVLE 0008   57 65  290/ 21/ 29 1004.6
5 SE WRIGHTSVLE  0008   54 58  300/ 12/ 17 1004.2
225 S CAPE HAT   2350   71 75  230/ 31/ 39 1003.5   11/ 8
41 SE CHARLESTON 0010   61 75  280/ 25/ 31 1007.4

$$




USA.gov is the U.S. government's official web portal to all federal, state and local government web resources and services.